EW8702 Weather Reports


Display with metric or nautical units.
time (UTC)temp
F
wind
direction
speed
MPH
gust
MPH
rain 1hr
in
rain 24hr
in
rain mn
in
humidity
%
barometer
mb
20210731194123 87 244 3.0 7.0 0.00 0.00 0.00 35 1022.1
20210731193123 87 259 3.0 7.0 0.00 0.00 0.00 38 1022.2
20210731192123 87 258 4.0 9.0 0.00 0.00 0.00 35 1022.2
20210731191123 87 219 3.0 6.0 0.00 0.00 0.00 35 1022.5
20210731190123 87 50 2.0 4.0 0.00 0.00 0.00 32 1022.6
20210731185123 87 165 2.0 6.0 0.00 0.00 0.00 38 1022.6
20210731184123 86 85 2.0 4.0 0.00 0.00 0.00 38 1022.8
20210731183123 85 174 2.0 6.0 0.00 0.00 0.00 37 1023.0
20210731182123 85 150 2.0 5.0 0.00 0.00 0.00 43 1023.3
20210731181123 85 89 2.0 7.0 0.00 0.00 0.00 39 1023.5
20210731180122 84 160 3.0 8.0 0.00 0.00 0.00 39 1023.7
20210731175122 82 160 3.0 5.0 0.00 0.00 0.00 42 1023.8
20210731174123 82 166 2.0 6.0 0.00 0.00 0.00 47 1023.9
20210731173123 81 99 2.0 6.0 0.00 0.00 0.00 44 1024.0
20210731172123 81 173 3.0 8.0 0.00 0.00 0.00 45 1024.1
20210731171122 80 143 2.0 6.0 0.00 0.00 0.00 51 1024.2
20210731170122 79 91 2.0 4.0 0.00 0.00 0.00 48 1024.1
20210731165123 79 146 2.0 6.0 0.00 0.00 0.00 48 1024.1
20210731164123 79 162 2.0 5.0 0.00 0.00 0.00 53 1024.2
20210731163123 77 185 2.0 7.0 0.00 0.00 0.00 52 1024.1
20210731162123 77 158 2.0 4.0 0.00 0.00 0.00 51 1024.1
20210731161123 76 117 2.0 3.0 0.00 0.00 0.00 55 1024.1
20210731160123 76 160 2.0 4.0 0.00 0.00 0.00 58 1024.2
20210731155123 74 86 1.0 2.0 0.00 0.00 0.00 58 1024.3
20210731154123 74 85 1.0 3.0 0.00 0.00 0.00 61 1024.2
20210731153123 73 83 1.0 3.0 0.00 0.00 0.00 62 1024.3
20210731152122 71 125 1.0 2.0 0.00 0.00 0.00 65 1024.3
20210731151123 70 105 1.0 3.0 0.00 0.00 0.00 66 1024.4
20210731150123 70 116 1.0 3.0 0.00 0.00 0.00 66 1024.4
20210731145122 68 281 0.0 2.0 0.00 0.00 0.00 68 1024.3
20210731144123 67 281 1.0 2.0 0.00 0.00 0.00 72 1024.4
20210731143123 66 281 1.0 3.0 0.00 0.00 0.00 73 1024.3
20210731142122 65 287 1.0 2.0 0.00 0.00 0.00 74 1024.2
20210731141123 65 330 0.0 1.0 0.00 0.00 0.00 76 1024.2
20210731140123 64 330 0.0 2.0 0.00 0.00 0.00 79 1024.2
20210731135123 62 329 1.0 2.0 0.00 0.00 0.00 81 1024.2
20210731134123 62 338 1.0 2.0 0.00 0.00 0.00 81 1024.2
20210731133123 61 0 0.0 0.0 0.00 0.00 0.00 82 1024.0
20210731132123 61 0 0.0 0.0 0.00 0.00 0.00 81 1023.9
20210731131123 62 351 0.0 1.0 0.00 0.00 0.00 79 1023.9
20210731130123 62 351 1.0 2.0 0.00 0.00 0.00 80 1023.7
20210731125122 61 339 2.0 5.0 0.00 0.00 0.00 81 1023.5
20210731124123 60 345 0.0 2.0 0.00 0.00 0.00 81 1023.5
20210731123123 61 0 0.0 0.0 0.00 0.00 0.00 80 1023.5
20210731122123 61 345 1.0 2.0 0.00 0.00 0.00 80 1023.5
20210731121123 60 345 1.0 2.0 0.00 0.00 0.00 81 1023.2
20210731120123 61 345 0.0 2.0 0.00 0.00 0.00 80 1023.0
20210731115122 61 345 0.0 1.0 0.00 0.05 0.00 79 1022.9
20210731114123 62 345 1.0 2.0 0.00 0.05 0.00 78 1022.9
20210731113123 62 337 2.0 4.0 0.00 0.05 0.00 78 1023.0
20210731112122 62 326 2.0 4.0 0.00 0.05 0.00 79 1022.9
20210731111122 62 326 0.0 2.0 0.00 0.05 0.00 78 1023.0
20210731110122 62 332 0.0 1.0 0.00 0.05 0.00 78 1022.8
20210731105123 62 332 0.0 1.0 0.00 0.11 0.00 77 1022.9
20210731104123 63 332 1.0 2.0 0.00 0.11 0.00 77 1022.8
20210731103123 63 0 0.0 0.0 0.00 0.11 0.00 76 1022.7
20210731102123 63 332 0.0 2.0 0.00 0.11 0.00 77 1022.7
20210731101122 63 320 1.0 3.0 0.00 0.11 0.00 78 1022.6
20210731100123 63 288 2.0 3.0 0.00 0.11 0.00 77 1022.5
20210731095122 63 288 0.0 1.0 0.00 0.11 0.00 77 1022.4
20210731094123 63 293 1.0 3.0 0.00 0.11 0.00 77 1022.5
20210731093123 64 0 0.0 0.0 0.00 0.11 0.00 76 1022.3
20210731092123 64 316 0.0 3.0 0.00 0.11 0.00 76 1022.4
20210731091122 64 340 0.0 1.0 0.00 0.11 0.00 75 1022.3
20210731090122 64 340 0.0 1.0 0.00 0.11 0.00 75 1022.2
20210731085123 65 0 0.0 1.0 0.00 0.11 0.00 74 1022.3
20210731084123 66 340 0.0 2.0 0.00 0.11 0.00 72 1022.4
20210731083123 66 340 0.0 2.0 0.00 0.11 0.00 72 1022.4
20210731082123 66 340 2.0 3.0 0.00 0.11 0.00 73 1022.3
20210731081123 65 15 1.0 3.0 0.00 0.11 0.00 73 1022.4
20210731080123 66 0 0.0 0.0 0.00 0.11 0.00 72 1022.2
20210731075122 66 25 0.0 1.0 0.00 0.11 0.00 72 1022.2
20210731074123 67 25 0.0 1.0 0.00 0.11 0.00 71 1022.2
20210731073123 67 25 0.0 1.0 0.00 0.11 0.00 71 1022.2
20210731072123 69 26 0.0 1.0 0.00 0.11 0.00 66 1022.1
20210731071123 68 1 1.0 2.0 0.00 0.11 0.00 67 1022.0
20210731070122 68 309 1.0 3.0 0.00 0.11 0.00 68 1022.1
20210731065123 68 272 1.0 2.0 0.00 0.11 0.00 67 1022.3
20210731064123 68 0 0.0 1.0 0.00 0.11 0.00 66 1022.4
20210731063123 68 0 0.0 0.0 0.00 0.11 0.00 67 1022.3
20210731062123 69 0 0.0 0.0 0.00 0.11 0.00 65 1022.3
20210731061122 69 272 0.0 2.0 0.00 0.11 0.00 65 1022.2
20210731060123 70 352 0.0 2.0 0.00 0.11 0.00 63 1022.1
20210731055122 70 346 1.0 3.0 0.00 0.11 0.11 61 1021.9
20210731054122 70 330 1.0 3.0 0.00 0.11 0.11 61 1021.8
20210731053123 71 284 1.0 3.0 0.00 0.11 0.11 60 1021.8
20210731052123 70 335 0.0 1.0 0.00 0.11 0.11 61 1021.8
20210731051123 70 292 0.0 1.0 0.00 0.11 0.11 61 1021.8
20210731050123 70 292 0.0 1.0 0.00 0.11 0.11 61 1021.7
20210731045122 71 292 0.0 1.0 0.00 0.11 0.11 58 1021.8
20210731044123 71 4 0.0 3.0 0.00 0.11 0.11 57 1021.6
20210731043123 72 32 0.0 2.0 0.00 0.11 0.11 56 1021.7
20210731042122 73 326 1.0 8.0 0.00 0.11 0.11 53 1021.7
20210731041123 73 279 2.0 6.0 0.00 0.11 0.11 54 1021.5
20210731040123 72 282 1.0 6.0 0.00 0.11 0.11 56 1021.3
20210731035123 72 304 1.0 3.0 0.00 0.11 0.11 56 1021.3
20210731034123 72 331 1.0 4.0 0.00 0.11 0.11 56 1021.2
20210731033122 73 278 3.0 6.0 0.00 0.11 0.11 54 1021.1
20210731032123 73 275 3.0 7.0 0.00 0.11 0.11 54 1021.0
20210731031123 74 274 3.0 4.0 0.00 0.11 0.11 54 1020.9
20210731030123 74 275 4.0 8.0 0.00 0.11 0.11 53 1020.8
20210731025123 74 311 0.0 2.0 0.00 0.11 0.11 52 1020.9
20210731024122 74 327 1.0 4.0 0.00 0.11 0.11 52 1020.6
20210731023122 74 282 1.0 4.0 0.00 0.11 0.11 55 1020.7
20210731022123 73 313 1.0 3.0 0.00 0.11 0.11 60 1020.7
20210731021123 74 335 1.0 2.0 0.00 0.11 0.11 60 1020.6
20210731020123 76 335 1.0 2.0 0.00 0.11 0.11 58 1020.4
20210731015122 76 337 1.0 3.0 0.00 0.11 0.11 55 1020.4
20210731014123 76 0 0.0 1.0 0.00 0.11 0.11 57 1020.4
20210731013122 77 175 0.0 1.0 0.00 0.11 0.11 51 1020.1
20210731012122 78 175 1.0 2.0 0.00 0.11 0.11 48 1020.2
20210731011122 79 175 1.0 3.0 0.00 0.11 0.11 47 1020.2
20210731010123 80 175 1.0 3.0 0.00 0.11 0.11 45 1020.2
20210731005122 80 183 1.0 2.0 0.00 0.11 0.11 44 1020.2
20210731004122 80 197 1.0 3.0 0.00 0.11 0.11 44 1020.1
20210731003123 81 81 1.0 2.0 0.00 0.11 0.11 43 1020.1
20210731002123 81 87 1.0 3.0 0.00 0.11 0.11 43 1020.1
20210731001122 81 130 1.0 3.0 0.00 0.11 0.11 43 1020.2
20210731000123 81 118 1.0 3.0 0.00 0.11 0.11 47 1020.2
20210730235123 81 87 1.0 2.0 0.00 0.11 0.11 45 1020.4
20210730234123 81 44 2.0 3.0 0.00 0.11 0.11 43 1020.3
20210730233123 81 199 1.0 4.0 0.00 0.11 0.11 45 1020.5
20210730232122 80 174 1.0 4.0 0.00 0.11 0.11 46 1020.6
20210730231122 80 179 2.0 5.0 0.00 0.11 0.11 44 1020.6
20210730230122 80 75 0.0 2.0 0.00 0.11 0.11 48 1020.7
20210730225122 79 272 1.0 3.0 0.00 0.11 0.11 45 1020.9
20210730224123 79 219 2.0 3.0 0.00 0.11 0.11 45 1020.9
20210730223123 80 204 2.0 5.0 0.00 0.11 0.11 45 1021.0
20210730222123 79 256 2.0 4.0 0.00 0.11 0.11 45 1021.1
20210730221123 80 280 2.0 8.0 0.00 0.11 0.11 46 1021.2
20210730220123 81 268 3.0 7.0 0.00 0.11 0.11 45 1021.3
20210730215123 81 277 3.0 10.0 0.00 0.11 0.11 51 1021.4
20210730214123 80 292 3.0 8.0 0.00 0.11 0.11 47 1021.4
20210730213123 81 323 3.0 10.0 0.00 0.11 0.11 46 1021.6
20210730212122 80 264 5.0 9.0 0.00 0.11 0.11 44 1021.8
20210730211123 79 212 2.0 5.0 0.00 0.11 0.11 47 1021.6
20210730210122 79 351 3.0 8.0 0.00 0.11 0.11 49 1021.7
20210730205123 76 9 4.0 7.0 0.00 0.11 0.11 57 1021.8
20210730204123 75 15 6.0 10.0 0.00 0.11 0.11 59 1022.0
20210730203123 74 8 5.0 11.0 0.00 0.11 0.11 60 1022.2
20210730202122 74 11 5.0 12.0 0.00 0.11 0.11 61 1022.3
20210730201123 76 24 2.0 10.0 0.00 0.11 0.11 57 1022.4
20210730200123 76 127 1.0 3.0 0.00 0.11 0.11 52 1022.5
20210730195123 76 115 1.0 3.0 0.00 0.11 0.11 53 1022.4